Flag for North Korea Weather past 2 weeks in Pyongyang, North Korea

43 °F

Passing clouds.

Feels Like: 37 °F
Forecast: 17 / 39 °F
Wind: 10 mph from Northwest

Location: Incheon International Airport

Current Time: Nov 30, 2015 at 2:51:49 PM

Latest Report: Nov 30, 2015 at 2:00 PM

Visibility: N/A

Pressure: 30.24 "Hg

Humidity: 46%

Dew point: 23 °F

Location of PyongyangLocation

Historic Weather in Pyongyang — Graph


Pyongyang temperature yesterday

Maximum temperature yesterday: 45 °F (at 7:30 PM)
Minimum temperature yesterday: 36 °F (at 6:30 AM)
Average temperature yesterday: 40 °F

Past Weeks' High & Low Weather Summary

High63 °F (Nov 17, 12:30 PM)93% (Nov 25, 6:00 AM)30.45 "Hg (Nov 25, 6:00 AM)
Low25 °F (Nov 27, 12:30 AM)41% (Nov 21, 12:30 PM)29.95 "Hg (Nov 16, 3:30 PM)
Average44 °F71%30.21 "Hg
* Reported Nov 15 1:30 PM — Nov 30 1:30 PM, Pyongyang, Weather by CustomWeather, © 2015

Note: Actual official high and low records may vary slightly from our data, if they occured in-between our weather recording intervals... More about our weather records


Pyongyang weather history for previous 24 hours

Time TempWeatherWind HumidityBarometerVisibility
1:30 PM
Mon, Nov 30
45 °FPassing clouds.9 mph49%30.24 "HgN/A
1:00 PM43 °FPassing clouds.9 mph46%30.24 "HgN/A
12:00 PM43 °FPassing clouds.8 mph57%30.27 "HgN/A
11:30 AM43 °FPassing clouds.8 mph53%30.27 "HgN/A
11:00 AM43 °FPassing clouds.7 mph57%30.27 "HgN/A
10:30 AM43 °FPassing clouds.7 mph57%30.27 "HgN/A
10:00 AM41 °FPassing clouds.7 mph61%30.27 "HgN/A
9:00 AM41 °FPassing clouds.9 mph66%30.27 "Hg5 mi
8:30 AM39 °FPassing clouds.7 mph75%30.27 "Hg4 mi
8:00 AM39 °FScattered clouds.8 mph75%30.24 "Hg4 mi
7:30 AM39 °FPassing clouds.8 mph75%30.24 "Hg4 mi
7:00 AM39 °FFog.8 mph75%30.24 "Hg3 mi
6:30 AM39 °FFog.7 mph75%30.24 "Hg2 mi
6:00 AM39 °FFog.8 mph81%30.21 "Hg2 mi
5:30 AM39 °FFog.7 mph81%30.21 "Hg2 mi
5:00 AM39 °FFog.7 mph81%30.21 "Hg2 mi
4:30 AM37 °FFog.8 mph87%30.21 "Hg2 mi
4:00 AM39 °FFog.5 mph87%30.21 "Hg2 mi
3:30 AM41 °FFog.10 mph81%30.21 "Hg2 mi
3:00 AM41 °FFog.9 mph81%30.21 "Hg2 mi
2:30 AM43 °FFog.13 mph81%30.21 "Hg2 mi
2:00 AM43 °FFog.12 mph87%30.21 "Hg2 mi
1:30 AM46 °FFog.13 mph71%30.18 "Hg2 mi
1:00 AM46 °FFog.9 mph71%30.18 "Hg2 mi
12:00 AM45 °FFog.7 mph81%30.18 "Hg2 mi
11:30 PM
Sun, Nov 29
45 °FLight rain. Fog.2 mph81%30.21 "Hg2 mi
11:00 PM43 °FLight rain. Fog.1 mph87%30.21 "Hg2 mi
10:30 PM43 °FLight rain. Fog.1 mph87%30.21 "Hg2 mi
10:00 PM45 °FLight rain. Fog.2 mph81%30.21 "Hg2 mi
9:30 PM45 °FLight rain. Fog.2 mph81%30.21 "Hg2 mi
9:00 PM45 °FLight rain. Fog.6 mph81%30.21 "Hg2 mi
8:30 PM45 °FLight rain. Fog.8 mph81%30.21 "Hg2 mi
8:00 PM45 °FLight rain. Fog.10 mph81%30.18 "Hg2 mi
7:30 PM45 °FLight rain. Fog.9 mph81%30.21 "Hg2 mi
7:00 PM43 °FDrizzle. Fog.12 mph81%30.21 "Hg2 mi
6:00 PM43 °FLight rain. Fog.12 mph81%30.21 "Hg2 mi
5:30 PM43 °FLight rain. Fog.10 mph81%30.21 "Hg2 mi
5:00 PM43 °FLight rain. Fog.9 mph81%30.21 "Hg3 mi
4:30 PM43 °FFog.8 mph76%30.24 "Hg3 mi
3:00 PM43 °FLight rain. Fog.9 mph76%30.24 "Hg3 mi
2:30 PM43 °FFog.10 mph76%30.24 "Hg3 mi
Weather by CustomWeather, © 2015

See weather overviewHow to use our weather pages